Location: ??????
(41.3164°N, 22.6615°E)
Time: 02:54:23
(UTC+00:00)

CAS-4A - Pass Details

Date: 10 July 2022
Orbit: 521 x 537 km, 43.0° (Epoch: 10 August)

Event Time Altitude Azimuth Distance (km) Brightness Sun altitude
Exits shadow 01:47:28 - 281° (W) 2,194 ? -12.3°
Reaches altitude 10° 01:48:38 10° 275° (W) 1,754 ? -12.2°
Maximum altitude 01:52:19 36° 209° (SSW) 841 ? -11.7°
Drops below altitude 10° 01:56:00 10° 142° (SE) 1,754 ? -11.2°
Sets 01:58:21 0° 133° (SE) 2,642 ? -10.9°
